Location: Dąbrówka
(52.2799°N, 15.8070°E)
Time: 15:06:25
(UTC+01:00)

ISS - Pass Details

Date: 24 January 2019
Orbit: 403 x 411 km, 51.6° (Epoch: 18 February)

Event Time Altitude Azimuth Distance (km) Brightness Sun altitude
Rises 17:44:21 0° 193° (SSW) 2,323 0.5 -11.4°
Reaches altitude 10° 17:47:37 10° 158° (SSE) 1,471 -1.1 -11.9°
Maximum altitude 17:48:44 11° 138° (SE) 1,395 -1.4 -12.1°
Enters shadow 17:49:34 11° 123° (ESE) 1,442 -1.4 -12.2°
